Location: Barcelona
(41.3830°N, 2.1830°E)
Time: 22:52:52
(UTC+02:00)

ISS - Pass Details

Date: 22 July 2017
Orbit: 400 x 408 km, 51.6° (Epoch: 24 July)

Event Time Altitude Azimuth Distance (km) Brightness Sun altitude
Exits shadow 01:10:42 16° 20° (NNE) 1,138 -1.0 -27.4°
Drops below altitude 10° 01:11:45 10° 35° (NE) 1,454 -0.5 -27.4°
Sets 01:14:07 0° 50° (NE) 2,316 0.4 -27.5°
